Skip Page Navigation
NASA JPL Caltech
NASA Logo - Jet Propulsion Laboratory + View the NASA Portal
+ Center for Near-Earth Object Studies
JPL Home Earth Solar System Stars & Galaxies Technology
JPL Solar System Dynamics
BODIES ORBITS EPHEMERIDES TOOLS PHYSICAL DATA DISCOVERY FAQ SITE MAP
IMPORTANT: The SSD Announcement email list is now available. Major changes are coming in the near future, including possible hostname and/or URL changes. To be notified of such changes, subscribe to this email list.

Please visit this page for more details.


JPL Small-Body Database Browser
Search: [ help ]  
34401 (2000 RS83)
Classification: Main-belt Asteroid          SPK-ID: 2034401
Ephemeris | Orbit Diagram | Orbital Elements | Mission Design | Physical Parameters | Discovery Circumstances ]

[ show orbit diagram ]
Orbital Elements at Epoch 2458600.5 (2019-Apr-27.0) TDB
Reference: JPL 25 (heliocentric ecliptic J2000)
 Element Value Uncertainty (1-sigma)   Units 
e .08212526136268158 5.0866e-08  
a 2.635613826023773 1.4545e-08 au
q 2.419163351710473 1.3329e-07 au
i 3.778291384271986 5.1365e-06 deg
node 321.4534861889659 6.1944e-05 deg
peri 347.3324439162674 6.9271e-05 deg
M 182.5534542436241 3.4789e-05 deg
tp 2459370.846549094365
(2021-Jun-05.34654909)
0.00015326 TDB
period 1562.863658415322
4.28
1.2938e-05
3.542e-08
d
yr
n .2303463888622408 1.9068e-09 deg/d
Q 2.852064300337072 1.574e-08 au
  Orbit Determination Parameters
   # obs. used (total)      1090  
   data-arc span      12485 days (34.18 yr)  
   first obs. used      1985-01-18  
   last obs. used      2019-03-26  
   planetary ephem.      DE431  
   SB-pert. ephem.      SB431-N16  
   condition code      0  
   norm. resid. RMS      .55743  
   source      ORB  
   producer      Otto Matic  
   solution date      2019-Jul-13 01:41:53  

Additional Information
 Earth MOID = 1.40389 au 
 Jupiter MOID = 2.34014 au 
 T_jup = 3.390 
[ show covariance matrix ]

Ephemeris | Orbit Diagram | Orbital Elements | Mission Design | Physical Parameters | Discovery Circumstances ]

Physical Parameter Table
Parameter Symbol Value Units Sigma Reference Notes
absolute magnitude H 14.9   n/a MPO337542  
diameter diameter 3.567 km 0.953 urn:nasa:pds:neowise_diameters_albedos::2.0[mainbelt] (http://adsabs.harvard.edu/abs/2011ApJ...741...68M)  
geometric albedo albedo 0.167   0.144 urn:nasa:pds:neowise_diameters_albedos::2.0[mainbelt] (http://adsabs.harvard.edu/abs/2011ApJ...741...68M)  

34401 (2000 RS83)          Discovered 2000-Sep-01 by LINEAR at Socorro
Reference: 20020128/Numbers.arcLast Updated: 2004-04-19

Alternate Designations
 2000 RS83 = 1985 BJ1 = 1991 PX28 
Ephemeris | Orbit Diagram | Orbital Elements | Mission Design | Physical Parameters | Discovery Circumstances ]
ABOUT SSD CREDITS/AWARDS PRIVACY/COPYRIGHT GLOSSARY LINKS
FirstGov
(server date/time)  
NASA Home Page
Site Manager:   Ryan S. Park
Webmaster  Alan B. Chamberlin